User: anonymous   Login
Location: Newark
(6.9000°N, 10.0000°E)
Time: 18:24:15
(UTC+00:00)
Language:

Envisat - Orbit

View from above orbital plane
View from above orbital plane
View from above satellite
View from above satellite

Ground track
Ground track

The orbit data is extracted from the following two-line orbital elements,

1 27386U 02009A   19322.55374995  .00000003  00000-0  14556-4 0  9999
2 27386  98.1428 335.7092 0001313  95.2322  16.3204 14.37963168928160
Epoch (UTC): 18 November 2019 13:17:23
Eccentricity: 0.0001313
inclination: 98.1428°
perigee height: 764 km
apogee height: 766 km
right ascension of ascending node: 335.7092°
argument of perigee: 95.2322°
revolutions per day: 14.37963168
mean anomaly at epoch: 16.3204°
orbit number at epoch: 92816

The dashed part of the orbit path shows where the satellite is in the earth's shadow,  

DLR